Wind_Speed
20 20 20 20 20 19 18 17 17 17 17 17 17 17 17 17 17 17 16 15 14 14 14 15 15 15 15 14 14 14 14 14 14 15 15 15 14 14 14 14 14 14 14 14 14 14 14 13 12
21 21 21 21 21 19 18 18 18 18 18 19 19 18 18 18 18 18 18 17 16 16 16 15 16 16 16 16 15 15 15 14 14 15 15 15 15 16 15 15 15 15 15 15 15 15 15 15 14
23 23 23 23 22 20 19 19 20 19 20 21 20 20 20 19 19 19 19 18 18 17 17 17 16 16 17 17 17 17 16 16 16 16 16 16 16 15 16 16 16 16 16 16 16 16 16 15 15
24 24 25 25 23 22 22 21 21 22 22 22 22 22 21 20 20 20 21 20 19 19 18 18 17 17 17 18 18 18 18 18 18 17 17 16 16 16 16 16 16 16 16 16 16 17 17 16 16
26 26 27 27 24 24 24 24 24 23 23 23 23 23 22 22 22 22 22 22 21 20 20 20 19 19 19 19 19 19 19 19 19 19 18 17 17 16 16 17 18 17 17 17 17 17 17 17 17
28 28 28 27 25 25 26 26 26 25 25 25 25 24 23 23 23 23 24 24 23 22 21 21 21 20 20 21 21 21 21 21 21 20 20 19 19 18 18 18 18 18 18 18 18 18 17 18 18
30 30 29 27 27 26 26 27 27 27 26 26 26 25 24 24 24 25 25 25 25 24 23 23 23 22 22 22 22 22 22 22 22 22 21 21 20 20 19 19 19 19 19 19 19 18 19 18 19
31 32 30 28 28 27 27 28 28 28 28 27 28 27 26 26 26 26 26 26 26 26 25 25 24 24 24 24 24 23 23 23 23 23 23 23 22 22 22 21 21 21 21 21 20 20 20 20 20
31 32 30 28 28 28 29 29 29 30 29 28 29 28 27 27 27 27 27 28 27 27 27 27 26 26 26 26 25 25 25 24 24 25 25 25 25 24 24 24 23 23 23 23 22 22 21 21 22
33 32 29 29 29 29 30 30 30 30 30 30 30 29 28 29 29 29 29 29 29 29 29 28 28 28 27 27 27 26 26 26 26 26 26 27 27 26 26 25 25 25 25 25 25 24 23 23 23
34 33 30 30 30 30 30 30 31 31 31 31 31 30 30 30 30 30 30 30 30 30 30 30 29 28 28 28 28 28 28 28 28 28 28 28 28 28 28 27 26 26 27 27 27 27 26 25 25
34 33 32 32 32 32 32 32 31 32 31 31 31 31 31 31 31 32 32 32 31 31 31 31 31 31 30 30 30 30 30 30 30 30 29 29 30 29 30 30 28 28 28 29 29 29 29 29 28
34 34 34 34 34 33 33 33 33 32 32 33 33 32 32 32 32 33 33 33 33 33 33 33 33 33 33 32 32 32 32 32 32 32 32 31 31 31 32 32 31 31 31 32 32 31 31 31 31
34 34 35 35 35 34 35 34 34 33 34 34 34 34 33 33 33 34 34 34 34 34 34 34 34 34 34 34 34 33 34 34 34 34 34 34 34 34 34 34 34 33 33 33 33 33 33 33 33
36 36 36 36 36 35 36 36 35 34 35 35 35 35 35 35 35 35 35 36 36 35 35 35 35 35 35 36 36 35 35 36 36 36 36 36 36 36 35 35 35 35 35 35 35 35 35 35 35
36 37 37 36 36 37 38 37 35 36 37 37 37 37 37 37 37 36 36 36 36 37 37 36 36 36 37 37 37 38 38 38 38 38 39 39 38 38 37 37 36 36 36 36 37 37 37 37 37
36 37 37 37 37 38 39 38 36 37 37 38 38 38 38 38 38 38 38 38 37 38 38 37 37 37 38 38 38 39 39 40 40 40 40 40 40 39 39 38 38 38 38 38 38 39 39 39 39
36 37 37 38 38 38 39 38 37 38 38 38 38 38 38 39 39 39 39 39 39 39 39 39 38 38 39 39 39 40 41 41 42 42 41 41 41 40 40 40 39 39 39 40 40 40 40 41 41
36 38 38 38 38 39 39 38 38 39 38 38 38 39 39 39 39 39 40 40 40 40 40 40 40 39 39 40 40 41 41 42 42 43 42 42 42 41 41 41 41 40 40 41 41 41 41 42 42
37 38 39 39 39 41 41 40 39 39 39 39 39 39 39 39 39 40 40 40 41 40 40 40 41 41 41 41 41 41 42 42 42 43 43 43 42 42 42 42 42 42 41 42 42 42 43 43 43
37 38 38 39 39 40 41 41 39 39 39 39 39 39 40 40 40 40 40 40 40 40 40 40 41 41 42 42 42 42 43 43 43 42 43 43 43 42 42 43 42 42 42 42 43 43 43 44 44
37 37 38 39 40 41 41 42 39 39 40 39 39 40 40 40 41 41 40 40 40 40 40 40 41 42 42 42 42 42 43 43 43 43 43 44 44 43 43 43 44 44 43 43 43 44 45 45 45
37 37 38 39 40 41 40 42 40 39 38 38 38 39 40 40 40 40 40 40 40 40 40 41 41 42 42 43 43 43 43 43 43 44 43 44 44 43 43 44 44 44 44 44 44 45 45 45 46
36 36 37 39 39 41 39 40 40 38 36 36 37 38 39 39 40 40 40 40 41 41 41 41 42 42 43 43 43 43 43 43 43 43 43 44 44 44 44 44 44 45 45 45 45 45 46 46 46
34 35 36 37 39 40 38 39 39 38 37 36 36 37 38 38 38 39 39 40 41 41 41 42 42 42 42 43 43 43 43 43 43 43 44 44 44 44 44 44 45 45 45 45 46 46 46 46 46
33 34 36 37 38 38 37 38 38 38 37 37 37 37 37 38 38 40 40 40 41 42 42 42 42 42 42 42 42 42 43 43 43 43 44 44 44 44 45 45 45 45 45 45 46 46 46 46 47
33 33 34 36 37 38 39 38 38 38 38 38 38 38 38 38 39 40 40 41 41 42 42 42 42 42 42 42 42 42 42 42 43 43 44 44 45 45 46 46 46 46 46 46 46 46 46 46 47
32 33 33 35 37 38 39 38 39 39 38 38 38 38 39 39 39 40 40 41 41 42 42 42 43 43 43 42 42 42 42 43 43 43 44 44 45 45 46 47 46 46 46 47 47 46 46 46 46
32 32 33 34 36 37 39 39 39 40 40 39 39 39 39 39 39 39 40 40 40 41 42 42 42 42 42 42 42 42 42 43 43 43 43 44 44 45 46 47 47 47 47 47 47 46 46 46 46
33 33 33 34 35 37 38 39 38 39 40 39 39 39 40 39 39 39 39 39 39 40 41 42 42 42 42 42 42 42 42 43 43 44 44 44 44 44 45 46 47 47 47 47 47 47 47 47 48
Wind_Direction
251 250 249 249 249 251 253 256 255 252 252 254 254 254 255 255 256 257 258 256 258 260 262 262 262 264 265 266 265 263 262 259 257 256 257 255 255 256 256 255 255 253 252 251 250 250 247 247 246
250 250 250 250 251 253 255 257 256 253 253 254 254 254 255 255 255 255 255 255 257 259 262 263 263 263 266 267 267 266 264 262 260 259 259 257 256 256 256 255 255 254 253 252 251 249 249 250 248
251 251 251 251 251 254 256 257 257 254 253 254 254 253 254 255 255 255 255 256 257 259 261 264 264 264 265 266 266 267 266 264 262 262 261 259 258 257 257 256 255 255 254 252 251 250 248 248 248
252 252 252 252 251 253 256 257 257 255 255 255 255 253 254 253 253 253 255 257 257 259 262 264 263 264 265 265 265 265 266 265 263 262 261 259 258 258 258 257 255 254 253 252 251 250 249 248 247
251 251 252 252 252 252 253 255 256 256 256 256 255 254 253 253 252 253 254 257 258 259 260 262 263 264 265 266 265 264 264 263 262 262 261 260 258 257 258 257 255 254 253 252 251 249 249 248 246
253 253 253 254 253 252 253 252 254 256 256 255 255 254 253 253 253 254 255 256 257 257 258 259 261 263 264 265 265 264 263 262 261 261 260 260 257 256 257 257 256 254 254 253 251 249 248 247 246
254 255 255 255 254 252 252 252 253 255 256 256 256 254 252 254 254 255 255 257 257 257 258 260 261 262 264 265 265 264 263 262 261 260 259 259 258 258 259 258 257 256 254 253 251 249 249 248 250
254 255 255 255 255 253 252 253 253 254 254 255 254 254 252 254 255 256 256 256 257 257 257 258 261 262 263 265 265 264 265 264 262 261 260 258 258 259 260 259 258 258 255 253 252 250 250 250 250
254 254 255 256 256 255 254 255 254 253 253 254 254 254 254 254 255 255 256 257 257 257 257 258 260 261 262 263 264 264 264 264 263 262 261 260 260 260 260 260 260 259 256 254 252 251 252 251 250
253 255 255 255 256 256 256 256 254 254 255 254 254 255 256 255 255 255 256 257 257 257 257 258 259 261 261 262 263 263 264 263 263 263 262 262 261 260 260 260 261 259 257 255 253 253 254 255 254
253 254 254 255 256 256 256 256 255 256 255 256 256 256 257 257 256 256 257 258 258 258 258 259 260 261 262 262 262 263 264 263 263 263 263 263 262 261 260 261 261 260 258 256 256 256 256 255 255
254 253 253 254 255 256 256 255 255 256 257 258 258 258 258 258 257 256 257 257 258 260 261 261 261 262 262 263 263 263 263 262 263 264 264 263 263 261 260 260 260 260 258 256 256 257 257 256 256
254 253 253 254 255 255 256 256 257 257 257 257 258 258 259 259 257 257 258 259 260 260 261 261 262 263 263 263 263 262 263 262 263 264 264 264 264 263 261 261 260 260 259 257 256 257 257 257 257
255 254 253 254 255 255 256 257 257 258 258 258 259 259 259 260 259 259 259 260 261 262 262 263 263 263 263 262 263 263 263 262 262 263 264 265 265 264 263 262 261 260 260 258 256 256 256 256 257
255 254 253 254 255 255 256 256 257 258 259 259 259 260 260 260 261 262 262 261 262 263 263 264 264 264 264 264 264 264 265 264 264 264 265 265 265 265 263 263 262 261 260 258 257 256 256 256 257
256 256 255 255 256 257 257 257 259 259 259 260 260 260 260 261 261 262 262 262 263 263 263 264 264 264 264 265 265 264 265 265 265 265 266 265 265 265 264 263 262 261 260 259 257 256 257 257 258
257 258 258 257 257 259 259 259 259 260 261 261 261 262 262 261 261 261 262 262 263 263 264 264 264 264 265 265 265 265 265 265 266 266 266 266 266 266 264 262 261 260 260 259 258 257 257 257 258
259 260 260 259 259 261 261 261 261 261 262 262 262 263 263 262 261 261 262 262 262 263 264 264 264 265 265 266 266 266 266 266 266 267 267 267 267 265 263 261 261 260 259 259 259 258 258 258 258
260 261 261 260 261 262 263 262 262 262 263 263 263 264 264 263 263 262 262 263 263 264 264 264 264 264 266 267 267 267 267 267 267 266 266 266 266 264 263 262 261 260 259 259 259 259 258 258 258
259 260 262 262 262 263 264 264 263 263 263 264 264 264 264 263 262 263 264 264 264 264 264 264 264 265 266 267 267 267 267 266 266 266 265 265 265 264 262 263 262 261 260 260 259 259 258 258 258
259 259 261 263 263 263 264 264 264 264 265 265 265 265 265 264 263 264 265 265 264 264 264 264 265 265 266 266 268 268 267 267 266 266 265 265 264 264 262 262 262 262 262 262 260 259 258 258 258
260 260 261 262 263 264 265 266 264 266 266 266 267 266 265 264 264 264 265 265 265 265 265 265 265 266 267 267 268 268 268 268 267 266 264 263 263 263 263 262 263 263 263 263 261 260 259 259 259
261 262 261 262 263 264 265 267 266 268 268 267 267 267 266 265 265 265 265 265 265 265 266 266 266 266 266 267 267 268 268 268 267 265 264 263 263 263 262 263 263 263 264 264 262 261 260 260 260
261 262 263 263 264 264 265 267 268 268 270 270 268 268 268 267 266 266 265 265 266 266 266 266 266 266 266 267 267 268 268 268 267 265 264 263 263 263 263 263 263 263 264 264 263 262 262 261 260
261 261 263 264 265 266 266 267 268 269 270 271 270 269 268 267 267 267 267 267 267 267 267 267 267 267 267 267 267 267 268 267 266 266 264 263 263 264 264 264 263 263 264 264 264 264 263 262 261
262 262 264 266 269 269 268 268 268 269 271 271 271 270 268 268 268 268 268 268 268 267 267 267 267 267 267 267 267 267 266 266 266 266 265 265 264 264 264 264 263 263 263 264 264 265 264 263 262
263 263 265 267 269 270 270 270 269 270 271 271 271 271 270 270 270 270 270 269 269 268 267 267 266 266 267 267 267 267 266 265 265 266 266 266 265 264 264 264 264 263 263 263 264 264 265 264 264
266 267 267 266 268 270 272 272 272 272 273 273 273 273 272 272 272 272 271 271 270 268 267 267 266 266 266 267 266 266 266 265 265 265 265 266 265 264 263 263 263 264 264 264 264 265 265 265 265
267 266 266 268 268 269 271 273 273 274 275 275 274 273 273 273 273 273 272 272 271 269 267 267 266 266 266 266 266 266 265 265 265 265 266 266 266 265 264 263 263 264 264 264 265 265 266 265 265
268 267 266 267 268 268 270 272 273 274 274 275 274 274 273 273 272 272 272 272 271 270 268 267 266 266 266 266 266 265 264 265 265 265 266 266 266 265 264 264 264 264 264 264 265 266 266 266 266
Height
5795 5796 5797 5798 5799 5800 5801 5803 5803 5804 5805 5805 5806 5807 5808 5809 5810 5813 5812 5811 5812 5813 5813 5814 5814 5814 5815 5815 5815 5816 5816 5817 5817 5818 5818 5819 5820 5820 5821 5822 5822 5823 5824 5825 5826 5827 5828 5829 5830
5791 5792 5793 5794 5795 5796 5798 5799 5800 5801 5802 5802 5803 5804 5805 5806 5806 5807 5808 5808 5809 5810 5810 5811 5811 5812 5812 5812 5812 5813 5813 5814 5814 5815 5816 5816 5817 5817 5818 5819 5820 5821 5821 5823 5823 5824 5825 5826 5827
5787 5788 5789 5790 5791 5793 5794 5795 5796 5797 5798 5799 5800 5801 5802 5803 5803 5804 5804 5805 5806 5807 5807 5807 5808 5808 5809 5809 5809 5810 5810 5811 5811 5812 5812 5813 5814 5814 5815 5816 5817 5818 5818 5819 5820 5822 5822 5823 5824
5783 5784 5785 5786 5787 5790 5790 5791 5792 5793 5794 5795 5795 5797 5798 5799 5800 5800 5800 5801 5802 5803 5803 5804 5804 5805 5805 5806 5806 5806 5807 5807 5808 5808 5809 5809 5810 5811 5812 5813 5813 5814 5815 5816 5817 5818 5819 5820 5822
5778 5779 5780 5780 5783 5785 5786 5787 5787 5788 5789 5790 5791 5792 5794 5794 5795 5796 5796 5797 5798 5799 5800 5800 5801 5801 5801 5802 5802 5803 5803 5804 5804 5804 5805 5806 5807 5808 5808 5809 5810 5810 5812 5813 5814 5815 5816 5817 5819
5773 5773 5775 5776 5778 5780 5781 5782 5782 5783 5784 5785 5786 5787 5789 5790 5791 5791 5792 5793 5794 5795 5795 5796 5796 5797 5797 5798 5798 5798 5799 5799 5800 5800 5801 5802 5803 5804 5804 5805 5806 5807 5808 5809 5810 5811 5812 5814 5815
5768 5768 5769 5771 5773 5775 5776 5777 5777 5778 5779 5780 5781 5782 5784 5785 5786 5786 5787 5788 5789 5790 5791 5791 5791 5792 5792 5793 5794 5794 5794 5795 5796 5796 5797 5798 5799 5800 5801 5801 5802 5803 5804 5805 5806 5808 5809 5810 5811
5761 5762 5763 5765 5767 5769 5770 5771 5772 5772 5774 5775 5776 5777 5779 5780 5780 5781 5782 5783 5784 5784 5785 5786 5786 5787 5787 5788 5788 5789 5789 5790 5791 5792 5792 5793 5794 5795 5796 5797 5798 5799 5800 5801 5802 5804 5805 5806 5807
5754 5756 5757 5760 5761 5763 5764 5765 5766 5766 5768 5769 5770 5771 5773 5774 5775 5776 5776 5777 5778 5779 5780 5780 5781 5781 5782 5782 5783 5784 5784 5785 5786 5786 5787 5788 5789 5790 5791 5792 5794 5794 5795 5797 5798 5799 5801 5802 5803
5747 5748 5753 5754 5755 5756 5757 5758 5760 5761 5762 5763 5764 5765 5766 5767 5768 5769 5770 5771 5772 5773 5774 5774 5775 5775 5776 5777 5777 5778 5779 5779 5780 5781 5782 5783 5784 5785 5786 5787 5788 5789 5790 5792 5793 5794 5796 5797 5799
5740 5743 5746 5747 5748 5749 5750 5752 5753 5754 5756 5757 5758 5759 5760 5760 5762 5763 5764 5765 5766 5766 5767 5768 5768 5769 5770 5770 5771 5772 5773 5773 5774 5775 5776 5777 5778 5778 5780 5781 5782 5783 5784 5786 5787 5789 5790 5792 5793
5734 5736 5738 5740 5741 5742 5743 5744 5746 5747 5750 5750 5751 5752 5753 5754 5755 5756 5757 5758 5759 5760 5760 5761 5762 5763 5763 5764 5765 5765 5766 5767 5768 5768 5769 5770 5771 5772 5773 5774 5775 5777 5778 5780 5781 5783 5784 5786 5787
5726 5729 5730 5732 5733 5735 5736 5737 5739 5741 5742 5742 5743 5745 5746 5747 5748 5748 5749 5750 5751 5752 5753 5754 5754 5755 5756 5757 5757 5758 5759 5760 5760 5761 5762 5763 5764 5765 5766 5767 5768 5769 5771 5772 5774 5775 5777 5779 5780
5719 5721 5722 5724 5726 5727 5728 5730 5731 5734 5734 5735 5736 5737 5739 5739 5740 5741 5742 5743 5744 5744 5745 5746 5746 5747 5748 5749 5750 5750 5751 5752 5753 5753 5754 5755 5756 5757 5757 5759 5760 5761 5763 5764 5766 5768 5769 5771 5773
5710 5712 5714 5716 5717 5719 5720 5721 5724 5726 5726 5727 5728 5729 5731 5732 5732 5733 5734 5735 5735 5736 5737 5737 5738 5738 5739 5740 5741 5742 5742 5743 5744 5745 5746 5746 5747 5748 5749 5750 5751 5752 5754 5755 5757 5759 5761 5763 5764
5702 5703 5705 5708 5709 5710 5712 5713 5717 5717 5717 5719 5720 5721 5722 5723 5724 5725 5725 5726 5727 5727 5728 5729 5729 5730 5730 5731 5732 5732 5733 5734 5735 5736 5736 5737 5738 5739 5740 5741 5742 5743 5745 5746 5748 5750 5752 5754 5756
5693 5694 5696 5699 5701 5701 5702 5705 5708 5708 5709 5710 5711 5712 5713 5714 5715 5716 5717 5717 5718 5719 5719 5720 5720 5721 5721 5722 5722 5723 5724 5724 5725 5726 5727 5727 5728 5729 5730 5731 5732 5734 5735 5737 5738 5740 5742 5744 5746
5685 5687 5688 5690 5692 5693 5694 5696 5698 5699 5700 5701 5702 5703 5704 5705 5706 5706 5707 5708 5709 5709 5710 5711 5711 5711 5712 5712 5713 5713 5714 5714 5715 5716 5716 5717 5718 5719 5719 5721 5722 5724 5725 5727 5729 5730 5732 5734 5736
5677 5678 5679 5682 5683 5683 5684 5686 5688 5689 5690 5691 5692 5693 5694 5695 5696 5696 5697 5698 5699 5699 5700 5701 5701 5702 5702 5702 5703 5703 5704 5704 5704 5705 5706 5706 5707 5708 5709 5710 5712 5713 5715 5717 5718 5720 5722 5724 5725
5667 5668 5670 5672 5673 5673 5674 5676 5678 5679 5680 5682 5682 5683 5684 5685 5686 5686 5687 5688 5688 5689 5690 5691 5691 5692 5692 5692 5692 5692 5692 5693 5693 5694 5695 5696 5696 5697 5698 5700 5701 5703 5705 5706 5708 5709 5711 5713 5715
5658 5660 5662 5662 5663 5663 5663 5665 5668 5669 5670 5671 5672 5673 5674 5674 5675 5676 5677 5678 5678 5679 5680 5680 5681 5681 5681 5681 5681 5681 5682 5682 5683 5683 5684 5685 5685 5686 5687 5689 5691 5692 5694 5695 5696 5698 5700 5702 5704
5649 5651 5652 5652 5652 5652 5653 5653 5658 5659 5660 5661 5662 5662 5663 5664 5665 5666 5667 5667 5668 5669 5669 5670 5670 5670 5670 5670 5670 5670 5671 5671 5672 5672 5672 5673 5674 5675 5676 5678 5679 5681 5682 5684 5685 5687 5688 5690 5692
5640 5642 5641 5642 5641 5642 5643 5642 5647 5648 5649 5651 5651 5651 5652 5653 5654 5655 5656 5657 5657 5658 5658 5658 5659 5659 5659 5659 5659 5659 5659 5660 5660 5660 5661 5662 5663 5664 5665 5667 5668 5670 5671 5672 5673 5675 5676 5678 5679
5631 5632 5632 5631 5631 5631 5635 5634 5636 5638 5640 5641 5641 5642 5642 5643 5643 5644 5645 5646 5646 5647 5647 5647 5648 5648 5648 5648 5648 5648 5648 5648 5649 5649 5650 5651 5652 5653 5654 5655 5657 5658 5659 5660 5661 5663 5664 5666 5667
5622 5622 5622 5621 5620 5622 5626 5624 5627 5629 5630 5631 5632 5632 5632 5632 5633 5634 5634 5635 5635 5636 5636 5636 5636 5636 5636 5636 5636 5637 5637 5637 5638 5638 5639 5640 5641 5642 5643 5644 5645 5646 5647 5648 5649 5650 5652 5653 5654
5613 5614 5614 5614 5613 5615 5615 5615 5619 5620 5621 5621 5621 5621 5621 5622 5623 5623 5624 5624 5624 5624 5624 5624 5624 5625 5625 5625 5625 5625 5626 5626 5627 5627 5628 5629 5629 5630 5631 5632 5633 5634 5635 5636 5637 5638 5639 5640 5642
5604 5605 5607 5606 5605 5605 5605 5607 5609 5609 5610 5611 5611 5611 5611 5612 5612 5612 5612 5612 5612 5612 5613 5613 5613 5613 5613 5614 5614 5614 5614 5615 5615 5616 5617 5617 5618 5619 5619 5620 5621 5622 5623 5624 5625 5626 5627 5628 5629
5596 5597 5597 5596 5595 5595 5597 5598 5599 5600 5601 5601 5601 5601 5601 5601 5601 5600 5600 5600 5600 5600 5600 5600 5601 5601 5602 5602 5602 5602 5603 5603 5603 5604 5605 5605 5606 5606 5607 5608 5609 5610 5611 5612 5613 5614 5615 5616 5617
5588 5588 5588 5588 5587 5587 5587 5591 5590 5590 5591 5591 5591 5590 5590 5590 5589 5589 5589 5588 5588 5588 5588 5588 5589 5589 5590 5590 5590 5590 5591 5591 5592 5592 5593 5593 5593 5594 5595 5596 5597 5598 5599 5600 5601 5602 5603 5603 5604
5579 5579 5579 5580 5579 5579 5579 5583 5580 5580 5580 5580 5580 5579 5579 5579 5578 5578 5577 5577 5577 5577 5576 5576 5577 5577 5578 5578 5578 5579 5579 5579 5580 5580 5581 5581 5582 5582 5583 5584 5585 5586 5587 5588 5588 5589 5590 5591 5592